Database contains data from 2013-07-07 to 2026-09-01.
87 measurements (5-min interval)
| Time | Temp Β°C | Dew Β°C | Humid % | Wind m/s | Gust m/s | Dir Β° | Rain mm | Press. hPa | UV | Solar W/mΒ² |
|---|---|---|---|---|---|---|---|---|---|---|
| 00:00 | 11,4 | 9,6 | 89 | 0,0 | 0,0 | β | 0,00 | 1 006,0 | 0,0 | 0 |
| 00:05 | 11,4 | 9,6 | 89 | 0,0 | 0,0 | β | 0,00 | 1 006,0 | 0,0 | 0 |
| 00:10 | 11,2 | 9,5 | 89 | 0,0 | 0,0 | β | 0,00 | 1 006,0 | 0,0 | 0 |
| 00:15 | 11,2 | 9,4 | 89 | 0,0 | 0,9 | β | 0,00 | 1 006,1 | 0,0 | 0 |
| 00:20 | 11,1 | 9,5 | 90 | 0,9 | 1,8 | 315 | 0,00 | 1 006,1 | 0,0 | 0 |
| 00:25 | 11,2 | 9,6 | 90 | 0,9 | 1,3 | 315 | 0,00 | 1 006,1 | 0,0 | 0 |
| 00:30 | 11,3 | 9,7 | 90 | 0,0 | 1,3 | β | 0,00 | 1 006,1 | 0,0 | 0 |
| 00:35 | 11,2 | 9,6 | 90 | 0,0 | 0,0 | β | 0,00 | 1 006,1 | 0,0 | 0 |
| 00:40 | 11,3 | 9,9 | 91 | 0,0 | 0,0 | β | 0,00 | 1 006,1 | 0,0 | 0 |
| 00:45 | 11,3 | 9,9 | 91 | 0,0 | 0,0 | β | 0,00 | 1 006,2 | 0,0 | 0 |
| 00:50 | 11,3 | 9,9 | 91 | 0,0 | 0,0 | β | 0,00 | 1 006,2 | 0,0 | 0 |
| 00:55 | 11,3 | 9,9 | 91 | 0,0 | 0,0 | β | 0,00 | 1 006,2 | 0,0 | 0 |
| 01:00 | 11,1 | 9,9 | 92 | 0,0 | 0,0 | β | 0,00 | 1 006,2 | 0,0 | 0 |
| 01:05 | 11,2 | 9,9 | 92 | 0,0 | 0,0 | β | 0,00 | 1 006,2 | 0,0 | 0 |
| 01:10 | 11,1 | 9,9 | 92 | 0,0 | 0,0 | β | 0,00 | 1 006,2 | 0,0 | 0 |
| 01:15 | 11,1 | 9,9 | 92 | 0,0 | 0,0 | β | 0,00 | 1 006,2 | 0,0 | 0 |
| 01:20 | 11,0 | 9,7 | 92 | 0,0 | 0,0 | β | 0,00 | 1 006,2 | 0,0 | 0 |
| 01:25 | 10,8 | 9,6 | 92 | 0,0 | 0,0 | β | 0,00 | 1 006,2 | 0,0 | 0 |
| 01:30 | 10,6 | 9,5 | 93 | 0,0 | 0,9 | β | 0,00 | 1 006,2 | 0,0 | 0 |
| 01:35 | 10,6 | 9,5 | 93 | 0,0 | 0,0 | β | 0,00 | 1 006,2 | 0,0 | 0 |
| 01:40 | 10,7 | 9,6 | 93 | 0,0 | 0,0 | β | 0,00 | 1 006,2 | 0,0 | 0 |
| 01:45 | 10,9 | 9,8 | 93 | 0,0 | 0,0 | β | 0,00 | 1 006,2 | 0,0 | 0 |
| 01:50 | 10,8 | 9,6 | 92 | 0,0 | 0,0 | β | 0,00 | 1 006,2 | 0,0 | 0 |
| 01:55 | 10,6 | 9,5 | 93 | 0,0 | 0,0 | β | 0,00 | 1 006,2 | 0,0 | 0 |
| 02:00 | 10,6 | 9,5 | 93 | 0,0 | 0,0 | β | 0,00 | 1 006,2 | 0,0 | 0 |
| 02:05 | 10,6 | 9,5 | 93 | 0,0 | 0,0 | β | 0,00 | 1 006,2 | 0,0 | 0 |
| 02:10 | 10,6 | 9,5 | 93 | 0,0 | 0,0 | β | 0,00 | 1 006,2 | 0,0 | 0 |
| 02:15 | 10,4 | 9,4 | 93 | 0,0 | 0,0 | β | 0,00 | 1 006,4 | 0,0 | 0 |
| 02:20 | 10,2 | 9,1 | 93 | 0,0 | 0,0 | β | 0,00 | 1 006,4 | 0,0 | 0 |
| 02:25 | 10,3 | 9,2 | 93 | 0,0 | 0,0 | β | 0,00 | 1 006,4 | 0,0 | 0 |
| 02:30 | 10,1 | 9,0 | 93 | 0,0 | 0,0 | β | 0,00 | 1 006,4 | 0,0 | 0 |
| 02:35 | 10,2 | 9,2 | 94 | 0,0 | 0,0 | β | 0,00 | 1 006,4 | 0,0 | 0 |
| 02:40 | 10,1 | 9,2 | 94 | 0,0 | 0,0 | β | 0,00 | 1 006,4 | 0,0 | 0 |
| 02:45 | 10,1 | 9,1 | 94 | 0,0 | 0,0 | β | 0,00 | 1 006,4 | 0,0 | 0 |
| 02:50 | 10,1 | 9,2 | 94 | 0,0 | 0,0 | β | 0,00 | 1 006,4 | 0,0 | 0 |
| 02:55 | 9,9 | 9,0 | 94 | 0,0 | 0,0 | β | 0,00 | 1 006,4 | 0,0 | 0 |
| 03:00 | 9,9 | 9,0 | 94 | 0,0 | 0,0 | β | 0,00 | 1 006,5 | 0,0 | 0 |
| 03:05 | 10,1 | 9,1 | 94 | 0,0 | 0,0 | β | 0,00 | 1 006,5 | 0,0 | 0 |
| 03:10 | 10,1 | 9,2 | 94 | 0,0 | 0,0 | β | 0,00 | 1 006,5 | 0,0 | 0 |
| 03:15 | 10,0 | 9,1 | 94 | 0,0 | 0,0 | β | 0,00 | 1 006,5 | 0,0 | 0 |
| 03:20 | 9,7 | 8,8 | 94 | 0,0 | 0,0 | β | 0,00 | 1 006,5 | 0,0 | 0 |
| 03:25 | 9,9 | 9,1 | 95 | 0,0 | 0,0 | β | 0,00 | 1 006,5 | 0,0 | 0 |
| 03:30 | 9,9 | 9,2 | 95 | 0,0 | 0,0 | β | 0,00 | 1 006,6 | 0,0 | 0 |
| 03:35 | 9,8 | 8,9 | 94 | 0,0 | 0,0 | β | 0,00 | 1 006,6 | 0,0 | 0 |
| 03:40 | 9,8 | 9,0 | 95 | 0,0 | 0,0 | β | 0,00 | 1 006,6 | 0,0 | 0 |
| 03:45 | 9,6 | 8,7 | 94 | 0,0 | 0,0 | β | 0,00 | 1 006,7 | 0,0 | 0 |
| 03:50 | 9,4 | 8,6 | 95 | 0,0 | 0,0 | β | 0,00 | 1 006,7 | 0,0 | 0 |
| 03:55 | 9,6 | 8,8 | 95 | 0,0 | 0,0 | β | 0,00 | 1 006,7 | 0,0 | 0 |
| 04:00 | 9,4 | 8,7 | 95 | 0,0 | 0,0 | β | 0,00 | 1 006,7 | 0,0 | 0 |
| 04:05 | 9,3 | 8,6 | 95 | 0,0 | 0,4 | β | 0,00 | 1 006,7 | 0,0 | 0 |
| 04:10 | 9,4 | 8,7 | 95 | 0,0 | 0,0 | β | 0,00 | 1 006,7 | 0,0 | 0 |
| 04:15 | 9,6 | 8,8 | 95 | 0,0 | 0,0 | β | 0,00 | 1 006,7 | 0,0 | 0 |
| 04:20 | 9,6 | 8,7 | 94 | 0,0 | 0,9 | β | 0,00 | 1 006,7 | 0,0 | 0 |
| 04:25 | 9,3 | 8,6 | 95 | 0,0 | 0,0 | β | 0,00 | 1 006,7 | 0,0 | 0 |
| 04:30 | 9,4 | 8,7 | 95 | 0,0 | 0,0 | β | 0,00 | 1 006,7 | 0,0 | 0 |
| 04:35 | 9,5 | 8,7 | 95 | 0,0 | 0,0 | β | 0,00 | 1 006,7 | 0,0 | 0 |
| 04:40 | 9,4 | 8,7 | 95 | 0,0 | 0,0 | β | 0,00 | 1 006,7 | 0,0 | 0 |
| 04:45 | 9,3 | 8,6 | 95 | 0,0 | 0,4 | β | 0,00 | 1 006,7 | 0,0 | 0 |
| 04:50 | 9,2 | 8,5 | 95 | 0,0 | 0,0 | β | 0,00 | 1 006,7 | 0,0 | 0 |
| 04:55 | 9,4 | 8,6 | 95 | 0,0 | 0,0 | β | 0,00 | 1 006,7 | 0,0 | 0 |
| 05:00 | 9,4 | 8,7 | 95 | 0,0 | 0,4 | β | 0,00 | 1 006,8 | 0,0 | 0 |
| 05:05 | 9,3 | 8,6 | 95 | 0,0 | 0,4 | β | 0,00 | 1 006,8 | 0,0 | 0 |
| 05:10 | 9,3 | 8,5 | 95 | 0,4 | 1,3 | 315 | 0,00 | 1 006,8 | 0,0 | 0 |
| 05:15 | 9,2 | 8,4 | 95 | 0,0 | 1,3 | β | 0,00 | 1 006,8 | 0,0 | 0 |
| 05:20 | 9,2 | 8,4 | 95 | 0,0 | 0,9 | β | 0,00 | 1 006,8 | 0,0 | 0 |
| 05:25 | 9,1 | 8,3 | 95 | 0,0 | 0,0 | β | 0,00 | 1 006,8 | 0,0 | 0 |
| 05:30 | 9,1 | 8,4 | 95 | 0,0 | 0,0 | β | 0,00 | 1 006,8 | 0,0 | 0 |
| 05:35 | 9,2 | 8,5 | 95 | 0,0 | 0,0 | β | 0,00 | 1 006,8 | 0,0 | 0 |
| 05:40 | 9,2 | 8,4 | 95 | 0,0 | 0,0 | β | 0,00 | 1 006,8 | 0,0 | 0 |
| 05:45 | 9,1 | 8,4 | 95 | 0,0 | 0,0 | β | 0,00 | 1 006,7 | 0,0 | 0 |
| 05:50 | 9,1 | 8,5 | 96 | 0,0 | 0,0 | β | 0,00 | 1 006,7 | 0,0 | 0 |
| 05:55 | 9,1 | 8,5 | 96 | 0,0 | 0,0 | β | 0,00 | 1 006,7 | 0,0 | 0 |
| 06:00 | 9,1 | 8,5 | 96 | 0,0 | 0,0 | β | 0,00 | 1 006,9 | 0,0 | 0 |
| 06:05 | 9,2 | 8,6 | 96 | 0,0 | 0,0 | β | 0,00 | 1 006,9 | 0,0 | 0 |
| 06:10 | 9,3 | 8,7 | 96 | 0,0 | 0,0 | β | 0,00 | 1 006,9 | 0,0 | 0 |
| 06:15 | 9,3 | 8,7 | 96 | 0,0 | 0,0 | β | 0,00 | 1 006,8 | 0,0 | 0 |
| 06:20 | 9,4 | 8,8 | 96 | 0,0 | 0,0 | β | 0,00 | 1 006,8 | 0,0 | 0 |
| 06:25 | 9,4 | 8,8 | 96 | 0,0 | 1,3 | β | 0,00 | 1 006,8 | 0,0 | 0 |
| 06:30 | 9,5 | 8,9 | 96 | 1,3 | 1,8 | 338 | 0,00 | 1 006,7 | 0,0 | 0 |
| 06:35 | 9,6 | 9,0 | 96 | 0,9 | 1,3 | 338 | 0,00 | 1 006,7 | 0,0 | 5 |
| 06:40 | 9,7 | 9,1 | 96 | 0,0 | 0,9 | β | 0,00 | 1 006,7 | 0,0 | 6 |
| 06:45 | 9,6 | 8,9 | 96 | 0,0 | 0,0 | β | 0,00 | 1 006,8 | 0,0 | 11 |
| 06:50 | 9,6 | 8,8 | 95 | 0,0 | 0,0 | β | 0,00 | 1 006,8 | 0,0 | 15 |
| 06:55 | 9,6 | 8,8 | 95 | 0,0 | 0,0 | β | 0,00 | 1 006,8 | 0,0 | 20 |
| 07:00 | 9,6 | 8,8 | 95 | 0,0 | 0,0 | β | 0,00 | 1 006,9 | 0,0 | 26 |
| 07:05 | 9,6 | 8,8 | 95 | 0,0 | 0,9 | β | 0,00 | 1 006,9 | 0,0 | 26 |
| 07:10 | 9,7 | 9,1 | 96 | 0,0 | 0,4 | β | 0,00 | 1 006,9 | 0,0 | 39 |